Date,TemperatureHighF,TemperatureAvgF,TemperatureLowF,DewpointHighF,DewpointAvgF,DewpointLowF,HumidityHigh,HumidityAvg,HumidityLow,PressureMaxIn,PressureMinIn,WindSpeedMaxMPH,WindSpeedAvgMPH,GustSpeedMaxMPH,PrecipitationSumIn
2013-9-1,94.1,81.3,69.6,60.3,54.9,49.7,55,41,28,29.80,29.68,8,0,12,0.00
2013-9-2,99.0,82.1,69.5,60.5,57.2,51.2,69,46,24,29.81,29.65,8,0,0,0.00
2013-9-3,96.9,81.8,69.8,62.2,59.1,52.7,73,49,26,29.82,29.69,5,0,0,0.00
2013-9-4,100.4,80.3,62.7,59.1,56.1,51.7,79,48,20,29.89,29.72,6,0,0,0.00
2013-9-5,100.0,79.8,61.9,58.1,54.1,49.9,73,46,19,29.86,29.72,5,0,0,0.00
2013-9-6,99.9,80.1,61.2,57.3,51.6,43.5,73,42,15,29.86,29.68,9,0,0,0.00
2013-9-7,99.8,82.7,69.6,51.2,42.5,35.8,50,26,12,29.82,29.68,9,1,13,0.00
2013-9-8,99.7,83.6,71.0,50.4,42.5,35.2,39,24,16,29.78,29.58,10,1,0,0.00
2013-9-9,98.1,81.6,69.4,55.1,48.3,44.8,46,32,20,29.71,29.54,8,0,0,0.00
2013-9-10,95.2,79.3,66.2,52.2,46.7,42.8,48,33,22,29.74,29.62,11,0,20,0.00
2013-9-11,89.0,77.2,65.7,53.8,48.9,45.5,54,38,26,29.82,29.72,5,0,12,0.00
2013-9-12,92.6,74.8,59.5,55.6,50.1,44.7,66,44,26,29.86,29.69,7,0,0,0.00
2013-9-13,94.8,76.8,62.3,56.6,51.8,46.6,62,44,25,29.79,29.58,6,0,0,0.00
2013-9-14,98.8,79.4,64.4,58.2,52.2,43.9,67,42,16,29.70,29.54,6,0,0,0.00
2013-9-15,98.6,80.6,65.0,56.5,49.5,44.0,58,36,18,29.72,29.59,7,0,0,0.00
2013-9-16,98.0,77.3,60.4,53.5,46.3,39.2,56,36,17,29.77,29.61,7,0,0,0.00
2013-9-17,89.4,73.2,59.5,54.6,44.3,35.3,48,37,19,29.71,29.56,8,1,13,0.00
2013-9-18,82.4,67.5,53.1,50.2,46.7,43.1,74,49,29,29.79,29.65,6,0,0,0.00
2013-9-19,94.9,72.2,51.7,49.5,41.0,32.9,67,38,12,29.83,29.65,10,0,0,0.00
2013-9-20,93.8,77.7,66.2,45.9,38.4,29.3,41,25,16,29.74,29.60,8,1,13,0.00
2013-9-21,81.1,66.7,53.4,48.5,43.7,39.8,64,45,27,29.72,29.63,8,1,12,0.00
2013-9-22,72.1,61.2,52.6,45.8,41.3,34.3,67,49,36,29.92,29.70,6,0,0,0.00
2013-9-23,86.0,67.7,44.2,50.2,44.2,38.9,83,46,21,29.99,29.82,7,0,0,0.00
2013-9-24,90.3,71.1,47.0,45.3,40.0,32.7,76,37,13,29.93,29.73,9,1,0,0.00
2013-9-25,73.1,66.9,56.7,48.1,41.9,36.0,71,42,29,29.73,29.57,12,2,14,0.00
2013-9-27,75.4,66.9,53.5,40.0,35.5,31.3,45,32,24,30.06,29.93,6,0,0,0.00
2013-9-28,82.5,66.1,52.2,39.7,32.3,24.5,45,30,13,30.09,29.91,9,1,0,0.00
2013-9-29,88.6,68.3,49.5,40.8,32.9,23.6,51,28,14,30.06,29.88,13,1,18,0.00
2013-9-30,84.0,65.7,49.7,48.1,41.6,34.5,65,44,23,29.97,29.78,7,0,0,0.00